www.pogodaiklimat.ru

Погода и климат >> Архив погоды >> Индонезия >> Палембанг


ПОГОДА в Палембанге

  • Прогноз погоды в Палембанге
  • Монитор погоды в Палембанге

АРХИВ ПОГОДЫ в Палембанге

Время (UTC), дата Ветер
(напр.,м/с)
 
Видим.   Явления Облачность Т
(С)
Тd
(С)
f
(%)
Тe
(С)
Тes
(С)
Комфортность P
(гПа)
Po
(гПа)
Тmin
(С)
Tmax
(С)
R
(мм)
R24
(мм)
S
(см)
21 18.08 ЮВ 2 10 км 4/1 300 м
[Cu hum Ci fib]
+24.6 +22.6 89 +32 +32 очень
душно
1011.9 1010.4
00 19.08 Ю 3 2500 м дымка 4/0
[Ac trans Ci fib]
+22.6 +21.8 95 +30 +31 очень
душно
1013.0 1011.5 +22.3
03 19.08 ЮВ 8 10 км 9/6 300 м
[Cu hum Ac trans Ci fib]
+29.5 +22.6 66 +39 +39 очень
душно
1013.4 1012.0
06 19.08 ЮВ 5 10 км 9/6 300 м
[Cu hum Ac trans Ci fib]
+32.6 +21.7 53 +41 +44 опасность
перегрева
1011.1 1009.6
09 19.08 ЮВ 4 10 км 8/5 300 м
[Cu hum Ac trans Ci fib]
+32.7 +21.2 51 +40 +42 очень
душно
1008.9 1007.5
12 19.08 В 3 10 км 8/3 300 м
[Cu hum Ac trans Ci fib]
+30.2 +22.3 63 +39 +39 очень
душно
1010.3 1008.9 +33.8
15 19.08 ЮВ 5 10 км 5/0
[Ac trans Ci fib]
+27.1 +22.6 76 +36 +36 очень
душно
1012.1 1010.6
18 19.08 ЮВ 3 10 км 5/0
[Ac trans Ci fib]
+25.9 +22.9 84 +35 +35 очень
душно
1011.2 1009.8
21 19.08 ЮВ 5 10 км 5/0
[Ac trans Ci fib]
+25.2 +22.0 82 +32 +32 очень
душно
1010.5 1009.0
00 20.08 Ю 4 8000 м мгла 5/0
[Ac trans Ci fib]
+24.8 +21.7 83 +32 +32 очень
душно
1011.2 1009.8 +22.6
03 20.08 ЮВ 5 10 км 8/6 300 м
[Cu hum Ac trans Ci fib]
+30.0 +22.2 63 +39 +41 очень
душно
1012.2 1010.7
06 20.08 В 3 10 км 8/6 300 м
[Cu hum Ac trans Ci fib]
+32.5 +22.0 54 +41 +47 опасность
перегрева
1009.5 1008.1
09 20.08 ЮВ 8 10 км 8/6 300 м
[Cu med, cong Ac trans Ci fib]
+32.1 +21.3 53 +40 +40 очень
душно
1007.9 1006.5
12 20.08 ЮВ 8 10 км 5/1 300 м
[Cu hum Ac trans Ci fib]
+29.1 +21.5 64 +37 +37 очень
душно
1009.2 1007.8 +33.6
15 20.08 ЮВ 5 10 км 5/1 300 м
[Cu hum Ac trans Ci fib]
+26.5 +22.9 81 +35 +35 очень
душно
1010.5 1009.1
18 20.08 Ю 3 6000 м мгла 4/1 300 м
[Cu hum Ac trans Ci fib]
+25.2 +23.1 88 +34 +34 очень
душно
1009.7 1008.3
21 20.08 Ю 2 4000 м дымка 4/1 300 м
[Cu hum Ac trans Ci fib]
+23.2 +22.5 96 +32 +32 очень
душно
1009.7 1008.3
00 21.08 Ю 1 3000 м дымка 5/1 300 м
[Cu hum Ac trans Ci fib]
+23.6 +22.9 96 +31 +32 очень
душно
1011.2 1009.7 +22.6
03 21.08 ЮВ 3 10 км 5/5 300 м
[Cu hum Ci fib]
+29.3 +22.7 68 +39 +45 очень
душно
1011.7 1010.2
06 21.08 В 21 10 км 8/6 300 м
[Cu hum Ac trans Ci fib]
+32.5 +21.6 53 +41 +41 опасность
перегрева
1009.6 1008.2
09 21.08 ЮВ 4 10 км 9/6 300 м
[Cu hum Ac trans Ci fib]
+32.6 +21.0 51 +40 +41 очень
душно
1007.9 1006.6
12 21.08 ЮВ 5 10 км 8/3 300 м
[Cu hum Ac trans Ci fib]
+29.4 +21.2 61 +37 +37 очень
душно
1009.9 1008.5 +33.5
15 21.08 В 4 10 км 6/1 300 м
[Cu hum Ac trans Ci fib]
+26.9 +22.7 78 +36 +36 очень
душно
1012.1 1010.7
18 21.08 ЮВ 4 10 км 6/1 300 м
[Cu hum Ac trans Ci fib]
+25.9 +23.0 84 +35 +35 очень
душно
1011.4 1010.0
21 21.08 Ю 3 8000 м мгла 5/0 900 м
[Ac trans Ci fib]
+24.2 +23.1 94 +32 +32 очень
душно
1011.3 1009.9
00 22.08 Ю 4 4000 м мгла 5/0
[Ac trans Ci fib]
+24.4 +23.3 94 +33 +33 очень
душно
1013.1 1011.6 +23.6
03 22.08 ЮВ 7 10 км 6/5 300 м
[Cu hum Ci fib]
+30.5 +21.9 60 +39 +41 очень
душно
1013.3 1011.8
06 22.08 ЮВ 6 10 км 6/5 300 м
[Cu hum Ci fib]
+33.7 +20.9 47 +41 +45 опасность
перегрева
1010.7 1009.3
09 22.08 В 7 10 км 5/4 300 м
[Cu hum Ci fib]
+33.4 +20.1 46 +40 +41 очень
душно
1008.8 1007.4
12 22.08 В 5 10 км 5/1 300 м
[Cu hum Ci fib]
+29.2 +21.4 63 +37 +37 очень
душно
1010.2 1008.7 +34.6
15 22.08 ЮВ 5 10 км 5/1 300 м
[Cu hum Ac trans Ci fib]
+26.6 +22.8 80 +35 +35 очень
душно
1012.4 1010.9
18 22.08 В 2 10 км 5/0
[Ac trans Ci fib]
+25.6 +22.7 84 +34 +34 очень
душно
1011.9 1010.5
21 22.08 Ю 3 7000 м мгла 6/0
[Ac trans Ci fib]
+23.5 +22.5 94 +31 +31 очень
душно
1011.4 1009.9
00 23.08 Ю 2 2000 м дымка 8/0
[Ac trans Ci fib]
+23.8 +23.1 96 +32 +33 очень
душно
1012.7 1011.2 +22.9
03 23.08 ЮВ 6 10 км 8/5 300 м
[Cu hum Ac trans Ci fib]
+29.7 +26.7 84 +46 +49 опасность
перегрева
1012.8 1011.4
06 23.08 В 3 10 км 9/6 300 м
[Cu hum Ac trans Ci fib]
+33.6 +21.3 49 +41 +46 опасность
перегрева
1010.0 1008.8
09 23.08 В 4 10 км 6/4 300 м
[Cu hum Ci fib]
+34.0 +20.8 46 +41 +43 опасность
перегрева
1008.1 1006.7
12 23.08 В 4 10 км 5/0
[Ci fib]
+29.9 +22.0 63 +39 +39 очень
душно
1009.9 1008.5 +34.5
15 23.08 ЮВ 4 6000 м мгла 5/0
[Ci fib]
+26.6 +23.8 85 +37 +37 очень
душно
1012.1 1010.7
18 23.08 В 3 7000 м мгла 5/0
[Ci fib]
+25.5 +23.8 90 +35 +35 очень
душно
1011.8 1010.4
21 23.08 В 2 8000 м мгла 4/0
[Ci fib]
+24.6 +23.2 92 +33 +33 очень
душно
1010.5 1009.0
00 24.08 Ю 2 1500 м дымка 6/5 300 м
[Cu hum Ci fib]
+24.2 +23.2 94 +32 +33 очень
душно
1012.5 1011.1 +23.2
03 24.08 ЮВ 8 10 км 6/5 300 м
[Cu hum Ci fib]
+30.6 +22.5 62 +40 +42 очень
душно
1012.5 1011.1
06 24.08 Ю 9 10 км 8/6 300 м
[Cu hum Ac trans Ci fib]
+33.7 +20.3 45 +40 +41 очень
душно
1009.6 1008.2
09 24.08 В 4 10 км 8/5 300 м
[Cu hum Ac trans Ci fib]
+33.3 +20.3 47 +40 +41 очень
душно
1008.2 1006.8
12 24.08 ЮВ 3 10 км 6/1 300 м
[Cu hum Ac trans Ci fib]
+29.0 +22.0 66 +37 +37 очень
душно
1010.2 1008.7 +35.2
15 24.08 ЮВ 4 10 км 5/0
[Ac trans Ci fib]
+26.4 +22.4 79 +35 +35 очень
душно
1011.4 1009.9
18 24.08 ЮВ 4 4000 м дым 5/0
[Ci fib]
+26.2 +22.8 82 +35 +35 очень
душно
1010.8 1009.4
21 24.08 Ю 4 10 км 5/0
[Ci fib]
+25.2 +22.4 84 +33 +33 очень
душно
1010.7 1009.2
00 25.08 Ю 4 6000 м дым 9/3 300 м
[Sc Ac trans Ci fib]
+25.0 +22.3 85 +33 +33 очень
душно
1011.9 1010.5 +24.0
03 25.08 ЮВ 5 10 км 9/4 300 м
[Cu hum Ac trans Ci fib]
+29.8 +22.0 63 +38 +41 очень
душно
1012.7 1011.3
06 25.08 ЮВ 4 10 км 9/8 300 м
[Cu hum Ac trans Ci fib]
+32.0 +21.2 53 +40 +42 очень
душно
1009.7 1008.3
09 25.08 ЮВ 5 10 км 9/6 300 м
[Cu med, cong Ac trans Ci fib]
+32.7 +20.8 50 +40 +41 очень
душно
1008.1 1006.7
12 25.08 ЮВ 4 10 км 8/4 300 м
[Cu hum Ac trans Ci fib]
+30.0 +22.2 63 +39 +39 очень
душно
1009.9 1008.5 +33.6
15 25.08 ЮВ 3 10 км 6/3 300 м
[Cu hum Ac trans Ci fib]
+27.4 +23.1 77 +37 +37 очень
душно
1011.6 1010.2

 

Местоположение метеостанции Палембанг (Индонезия): широта -2.90 долгота 104.70 высота над уровнем моря 10 м.

В архиве по умолчанию представлена погода в Палембанге за последнюю неделю. Архивные данные за месяц целиком и за предыдущие месяцы, начиная с января 2011 года, Вы можете получить, выбрав интересующий диапазон дат из раскрывающегося списка и нажав кнопку "Ввод!".


*Определитесь, кто Вы:
робот инопланетянин человек

Внимание! Время в таблицах - всемирное. Для получения местного времени необходимо прибавить поправку, которая равна 7 ч.

Смотрите также архив погоды в соседних городах и на ближайших метеорологических станциях:

Погода в Панкалпинанге (Индонезия) (178 км)
Погода в Джамби (Индонезия) (183 км)
Погода в Танджунгкаранге (Индонезия) (250 км)
Погода в Аэропорту Дабо (Индонезия) (269 км)
Погода в Бенкулу (Индонезия) (285 км)
Погода в Танджунгпандане (Индонезия) (339 км)
Погода на Керинчи (Индонезия) (371 км)
Погода в Аэропорту Япура (Индонезия) (390 км)
Погода в Серанге (Индонезия) (392 км)
Погода в Аэропорту Сукарно-Хатта (Индонезия) (418 км)

Пояснения к столбцам:

Ветер - указаны скорость ветра в м/с - средняя за 10 мин, порывы в срок и между сроками (в фигурных скобках) и направление, откуда дует ветер: С - северный, СВ - северо-восточный, В - восточный, ЮВ - юго-восточный, Ю - южный, ЮЗ - юго-западный, З - западный, СЗ - северо-западный.
Видимость - горизонтальная дальность видимости в метрах или километрах. При видимости от 1 до 10 км при отсутствии осадков обычно наблюдается дымка, при ухудшении видимости до 1 км и менее - туман. В сухую погоду видимость может ухудшаться дымом, пылью или мглою.
Явления - указаны атмосферные явления, наблюдавшиеся в срок или в последний час перед сроком; фигурными скобками обозначены явления, наблюдавшиеся между сроками (за 1-3 часа до срока); квадратными скобками обозначены град или гололедные отложения с указанием их диаметра в мм.
Облачность - указаны через наклонную черту общая и нижняя облачность в баллах и высота нижней границы облаков в метрах; квадратными скобками обозначены формы облаков: Ci - перистые, Cs - перисто-слоистые, Cc - перисто-кучевые, Ac - высококучевые, As - высокослоистые, Sc - слоисто-кучевые, Ns - слоисто-дождевые, Cu - кучевые, Cb - кучево-дождевые. Подробнее классификацию облаков см. в Атласе облаков (PDF).
T - Температура воздуха - температура, измеренная на высоте 2 м над землей.
Td - Температура точки росы - температура, при понижении до которой содержащийся в воздухе водяной пар достигнет насыщения.
f - Относительная влажность воздуха - влажноcть воздуха, измеренная на высоте 2 м над землей.
Te - Эффективная температура - температура, которую ощущает одетый по сезону человек в тени. Характеристика душности погоды. При расчете учитывается влияние влажности воздуха и скорости ветра на теплоощущения человека.
Tes - Эффективная температура на солнце - температура, которую ощущает человек, с поправкой на солнечный нагрев. Характеристика знойности погоды. Зависит от высоты солнца над горизонтом, облачности и скорости ветра. Ночью, в пасмурную погоду, а также при ветре 12 м/с и более поправка равна нулю.
P - Атмосферное давление - приведенное к уровню моря атмосферное давление.
Po - Атмосферное давление - измеренное на уровне метеостанции атмосферное давление.
Tmin - Минимальная температура - минимум температуры воздуха на высоте 2 м над землей.
Tmax - Максимальная температура - максимум температуры воздуха на высоте 2 м над землей.
R - Количество осадков - Количество выпавших осадков за период времени, мм. При наведении курсора мыши на число - период времени, за который выпало указанное количество осадков.
R24 - Количество осадков - Количество выпавших осадков за 24 часа, мм.
S - Снежный покров - Высота снежного покрова, см. При наведении курсора мыши на число - состояние снежного покрова и степень покрытия местности в баллах.